Regional Weather Roundup
Issued by NWS Newport/Morehead, NC

Current Version | Previous Version | Graphics & Text | Print | Product List | Glossary Off
Versions: 1 2 3 4 5 6 7 8 9 10 11 12 13 14 15 16 17 18 19 20 21 22 23 24 25 26 27 28 29 30 31 32 33 34 35 36 37 38 39 40 41 42 43 44 45 46 47 48 49 50

789
ASUS42 KMHX 270025
RWRMHX
WEATHER ROUNDUP FOR EASTERN NORTH CAROLINA
NATIONAL WEATHER SERVICE NEWPORT/MOREHEAD CITY NC
800 PM EDT THU MAY 26 2016

NOTE: "FAIR" INDICATES FEW OR NO CLOUDS BELOW 12,000 FEET
WITH NO SIGNIFICANT WEATHER AND/OR OBSTRUCTIONS TO VISIBILITY

NCZ015>017-031-032-045>047-102-103-270100-
NORTH COAST

CITY           SKY/WX    TMP DP  RH WIND       PRES   REMARKS
EDENTON        CLEAR     79  64  61 S13G18    30.10R
ELIZABETH CITY CLEAR     78  63  59 S13       30.09S
KITTY HAWK     CLEAR     75  65  70 S6        30.11R
MANTEO         NOT AVBL

$$

NCZ045>047-081-094-103-104-270100-
CENTRAL COAST

CITY           SKY/WX    TMP DP  RH WIND       PRES   REMARKS
FRISCO         CLEAR     73  67  81 S7        30.15S

$$

NCZ095-097-098-100-101-270100-
SOUTHERN COAST

CITY           SKY/WX    TMP DP  RH WIND       PRES   REMARKS
BEAUFORT       CLEAR     74  66  76 S9        30.14S
CEDAR ISLAND   NOT AVBL
JACKSONVILLE   CLEAR     75  63  66 S9        30.12S
PINEY ISLAND   CLEAR    N/A N/A N/A S8        30.13
WILMINGTON     CLEAR     75  63  66 S9        30.12S


$$

NCZ011>013-027>030-043-044-078>080-089-090>093-098-270100-
COASTAL PLAIN

CITY           SKY/WX    TMP DP  RH WIND       PRES   REMARKS
AHOSKIE        CLEAR     78  63  61 CALM      30.07S
CLINTON        CLEAR     80  67  66 S7        30.10R
ELIZABETHTOWN  CLEAR     78  63  59 S8        30.11R
GOLDSBORO      PTCLDY    83  63  49 S6        30.07R
GREENVILLE     PTCLDY    81  64  57 S15       30.11R
HAVELOCK       CLEAR     74  64  71 S8        30.14S
KENANSVILLE    PTCLDY    79  61  54 SE5       30.11R
KINSTON        CLEAR     79  64  61 S14       30.10R
NEW BERN       CLEAR     76  62  62 S9        30.13R
RICHLANDS      CLEAR     76  63  64 S9        30.12R
ROCKY MOUNT    CLOUDY    82  63  52 S5        30.07R
WASHINGTON     CLEAR     77  64  63 S7        30.10R
WHITEVILLE     CLEAR     76  63  63 S7        30.11S

$$

AMZ130-135-150-152-154-156-158-170-250-252-270-ANZ085-086-088-633-658-670-270100-
MARINE OBSERVATIONS

STATION/POSITION TIME  TEMP    WIND        PRES    WAVE   SWELL
                       AIR SEA DIR/SP/G            HT/PER HT/PER
                 (UTC) (F)     (DEG/KT/KT) (MB)    (FT/S) (FT/S)
CHESAPEAKE LIGHT 0000   70     180/ 24/ 25 1018.4
64 E VA BEACH    2350   65 59  180/ 12/ 14 1019.5    2/ 8   2/ 8
DUCK             0000                      1018.5
2 E DUCK         2311      68                N/A     2/ 8
OREGON INLET     0000                      1020.2
13E OREGON INLT  0000      65                N/A     2/ 8   2/ 8
HATTERAS CG      0000                      1020.2
DIAMOND BUOY     2250   76 73  210/  6/  8 1021.2    2/ 8   2/ 8
CAPE LOOKOUT     0000   74     160/ 10/ 11 1020.3
BEAUFORT LAB     0000                      1019.7
30 SE NEW RVR IN 2325      75                N/A     2/ 8
27 SE WRIGHTSVLE 0008   76 75  180/ 10/ 12 1019.9
5 SE WRIGHTSVLE  0008   75 74  190/  8/ 12 1020.8
225 S CAPE HAT   2250   76 78   70/ 16/ 17 1020.6    3/ 4   2/ 8
41 SE CHARLESTON 2350   78 78  130/  8/ 12 1019.5    2/ 8   2/ 8

$$




USA.gov is the U.S. government's official web portal to all federal, state and local government web resources and services.